sat.trackr.live / text

‹ back to catalog

STARLINK-5482

NORAD 56358 · 2023-058AT

PAYLOAD ACTIVE UNKNOWN

§ Identity

Operator
Country
US
Launch date
2023-04-27
Launch site
AFWTR
Launch vehicle
Mass (kg)
RCS (m²)

Purposes: comms

External: N2YO · Heavens-Above · Gunter

§ Orbital elements

Epoch: 2026-09-20T22:00:03.000096Z

Period
94.85 min
Inclination
97.2819°
Eccentricity
0.0002525
Mean motion
15.18259433 rev/d
Perigee alt
509.4 km
Apogee alt
512.8 km
Semi-major
6,889.2 km
B*
3.8933e-3
RAAN
257.8387°
Arg perigee
65.5884°
Mean anomaly
183.3031°
Rev number
568

§ Raw data

STARLINK-54821 56358U 23058AT  26263.91670139  .00080503  00000+0  38933-2 0  99932 56358  97.2819 257.8387 0002525  65.5884 183.3031 15.18259433  5684

JSON: /api/v1/satellites/56358 · /tle

For live sub-satellite position, see the globe view (requires WebGL).

§ Visibility from observer

Set your observer location to see the next 7 days of passes ≥ 10°. The values pass through the URL so the page stays shareable.

No JS? Fill the form by hand. The geolocation button needs JavaScript.